Radiation Dose at Monitoring Post of Fukushima Daini Nuclear Power Station
Date,Time,MP-1(microSv/h),MP-2(microSv/h),MP-3(microSv/h),MP-4(microSv/h),MP-5(microSv/h),MP-6(microSv/h),MP-7(microSv/h),Wind Direction,Wind Velocity(m/s),Rain
2015/06/13,00:00,0.517,0.297,0.541,0.483,0.462,0.243,0.215,-,CALM,No
2015/06/13,00:10,0.517,0.297,0.542,0.491,0.468,0.241,0.214,-,CALM,No
2015/06/13,00:20,0.513,0.299,0.544,0.487,0.465,0.243,0.214,-,CALM,No
2015/06/13,00:30,0.519,0.296,0.538,0.486,0.466,0.242,0.215,-,CALM,No
2015/06/13,00:40,0.516,0.300,0.547,0.490,0.467,0.242,0.214,-,CALM,No
2015/06/13,00:50,0.516,0.298,0.542,0.484,0.463,0.244,0.215,south,0.8,No
2015/06/13,01:00,0.519,0.299,0.541,0.490,0.471,0.242,0.214,south,1.4,No
2015/06/13,01:10,0.515,0.298,0.544,0.487,0.464,0.243,0.215,south-southwest,1.2,No
2015/06/13,01:20,0.521,0.297,0.539,0.488,0.467,0.242,0.214,-,CALM,No
2015/06/13,01:30,0.517,0.300,0.545,0.488,0.468,0.243,0.214,south,0.9,No
2015/06/13,01:40,0.516,0.297,0.540,0.484,0.463,0.242,0.215,south,1.5,No
2015/06/13,01:50,0.520,0.299,0.543,0.491,0.468,0.242,0.214,south-southeast,1.6,No
2015/06/13,02:00,0.513,0.298,0.541,0.485,0.465,0.243,0.216,south,1.6,No
2015/06/13,02:10,0.520,0.298,0.541,0.489,0.468,0.242,0.214,south-southeast,1.6,No
2015/06/13,02:20,0.514,0.300,0.545,0.488,0.466,0.243,0.216,south-southeast,1.6,No
2015/06/13,02:30,0.517,0.297,0.539,0.485,0.465,0.243,0.213,south-southeast,1.3,No
2015/06/13,02:40,0.519,0.300,0.544,0.489,0.468,0.242,0.214,south,1.3,No
2015/06/13,02:50,0.513,0.297,0.544,0.484,0.462,0.242,0.213,south-southwest,1.4,No
2015/06/13,03:00,0.520,0.300,0.541,0.492,0.469,0.242,0.215,south,1.8,No
2015/06/13,03:10,0.514,0.297,0.544,0.486,0.465,0.242,0.214,south,1.4,No
2015/06/13,03:20,0.517,0.298,0.540,0.489,0.467,0.242,0.215,south,1.5,No
2015/06/13,03:30,0.518,0.300,0.545,0.489,0.468,0.242,0.213,south,2.2,No
2015/06/13,03:40,0.513,0.298,0.540,0.485,0.465,0.242,0.214,south,3.4,No
2015/06/13,03:50,0.520,0.299,0.543,0.491,0.469,0.241,0.214,south,4.1,No
2015/06/13,04:00,0.514,0.296,0.544,0.485,0.462,0.242,0.214,south,3.3,No
2015/06/13,04:10,0.518,0.300,0.539,0.489,0.469,0.242,0.215,south,3.3,No
2015/06/13,04:20,0.518,0.299,0.546,0.486,0.464,0.243,0.215,south,3.8,No
2015/06/13,04:30,0.515,0.298,0.540,0.487,0.466,0.242,0.215,south,5.0,No
2015/06/13,04:40,0.520,0.299,0.545,0.490,0.469,0.242,0.215,south,4.8,No
2015/06/13,04:50,0.514,0.297,0.543,0.485,0.465,0.244,0.216,south,4.2,No
2015/06/13,05:00,0.521,0.300,0.543,0.490,0.469,0.242,0.213,south,4.6,No
2015/06/13,05:10,0.518,0.298,0.545,0.483,0.462,0.243,0.215,south,3.1,No
2015/06/13,05:20,0.516,0.299,0.539,0.490,0.471,0.244,0.214,south,4.8,No
2015/06/13,05:30,0.519,0.300,0.546,0.487,0.464,0.244,0.216,south,5.0,No
2015/06/13,05:40,0.515,0.298,0.540,0.488,0.467,0.243,0.214,south-southeast,4.1,No
2015/06/13,05:50,0.519,0.298,0.544,0.490,0.468,0.243,0.216,south,3.0,No
2015/06/13,06:00,0.515,0.297,0.544,0.486,0.464,0.243,0.215,south,3.9,No
2015/06/13,06:10,0.518,0.300,0.538,0.491,0.470,0.243,0.216,south-southwest,3.3,No
2015/06/13,06:20,0.520,0.297,0.546,0.485,0.464,0.243,0.216,south-southwest,3.0,No
2015/06/13,06:30,0.516,0.298,0.539,0.491,0.468,0.242,0.213,south,3.9,No
2015/06/13,06:40,0.519,0.300,0.544,0.487,0.468,0.244,0.215,south,3.0,No
2015/06/13,06:50,0.515,0.296,0.543,0.488,0.464,0.243,0.215,south-southeast,2.0,No
2015/06/13,07:00,0.518,0.298,0.539,0.491,0.469,0.242,0.216,southeast,3.3,No
2015/06/13,07:10,0.518,0.299,0.545,0.485,0.464,0.243,0.213,south,5.0,No
2015/06/13,07:20,0.514,0.297,0.540,0.488,0.466,0.242,0.214,south,3.9,No
2015/06/13,07:30,0.521,0.298,0.542,0.489,0.468,0.243,0.215,south-southeast,3.7,No
2015/06/13,07:40,0.516,0.299,0.546,0.485,0.462,0.244,0.214,south,4.2,No
2015/06/13,07:50,0.517,0.297,0.540,0.493,0.470,0.241,0.217,south,3.6,No
2015/06/13,08:00,0.519,0.296,0.537,0.489,0.470,0.243,0.215,south-southeast,3.3,No
2015/06/13,08:10,0.515,0.300,0.545,0.483,0.462,0.242,0.214,south,3.6,No
2015/06/13,08:20,0.513,0.299,0.541,0.491,0.464,0.242,0.216,south-southeast,3.1,No
2015/06/13,08:30,0.519,0.297,0.537,0.488,0.468,0.243,0.216,south,2.1,No
2015/06/13,08:40,0.517,0.297,0.538,0.484,0.466,0.243,0.215,south-southeast,3.6,No
2015/06/13,08:50,0.515,0.298,0.547,0.481,0.462,0.241,0.214,south-southeast,3.4,No
2015/06/13,09:00,0.519,0.301,0.543,0.489,0.460,0.243,0.215,south-southeast,3.9,No
2015/06/13,09:10,0.521,0.299,0.539,0.490,0.468,0.243,0.215,south-southeast,3.2,No
2015/06/13,09:20,0.516,0.296,0.542,0.487,0.469,0.243,0.215,south-southeast,3.9,No
2015/06/13,09:30,0.513,0.298,0.545,0.485,0.465,0.242,0.215,south,3.9,No
2015/06/13,09:40,0.519,0.301,0.543,0.483,0.464,0.242,0.216,south-southeast,4.7,No
2015/06/13,09:50,0.520,0.300,0.541,0.489,0.461,0.244,0.216,south,4.5,No
2015/06/13,10:00,0.516,0.299,0.539,0.491,0.463,0.244,0.216,south,4.2,No
2015/06/13,10:10,0.514,0.298,0.542,0.491,0.462,0.244,0.215,south-southeast,5.0,No
2015/06/13,10:20,0.514,0.297,0.546,0.488,0.463,0.243,0.215,south,6.0,No
2015/06/13,10:30,0.512,0.297,0.546,0.487,0.464,0.243,0.214,south,5.3,No
2015/06/13,10:40,0.513,0.296,0.542,0.486,0.463,0.243,0.212,south-southwest,4.8,No
2015/06/13,10:50,0.512,0.300,0.541,0.485,0.465,0.243,0.214,south,5.4,No
2015/06/13,11:00,0.514,0.302,0.541,0.487,0.465,0.243,0.216,south,5.9,No
2015/06/13,11:10,0.520,0.300,0.542,0.486,0.465,0.244,0.215,south,5.7,No
2015/06/13,11:20,0.522,0.300,0.541,0.485,0.464,0.243,0.215,south-southwest,3.5,No
2015/06/13,11:30,0.520,0.299,0.541,0.487,0.465,0.243,0.215,south,5.0,No
2015/06/13,11:40,0.518,0.299,0.543,0.487,0.466,0.246,0.214,south-southwest,6.0,No
2015/06/13,11:50,0.517,0.298,0.542,0.487,0.464,0.245,0.213,southwest,5.0,No
2015/06/13,12:00,0.516,0.297,0.544,0.488,0.466,0.244,0.214,west-southwest,5.5,No
2015/06/13,12:10,0.515,0.298,0.546,0.487,0.468,0.244,0.215,south-southwest,4.7,No
2015/06/13,12:20,0.515,0.298,0.544,0.488,0.468,0.244,0.216,southwest,2.8,No
2015/06/13,12:30,0.516,0.299,0.545,0.492,0.468,0.244,0.217,west-southwest,4.8,No
2015/06/13,12:40,0.517,0.300,0.546,0.491,0.466,0.244,0.217,northwest,5.0,No
2015/06/13,12:50,0.518,0.300,0.548,0.491,0.467,0.244,0.215,south,2.3,No
2015/06/13,13:00,0.518,0.300,0.550,0.493,0.469,0.244,0.215,south-southwest,4.9,No
2015/06/13,13:10,0.517,0.300,0.550,0.493,0.467,0.244,0.215,south-southwest,5.4,No
2015/06/13,13:20,0.520,0.301,0.554,0.493,0.467,0.244,0.214,south-southwest,5.0,No
2015/06/13,13:30,0.523,0.300,0.552,0.491,0.467,0.244,0.216,south-southwest,6.4,No
2015/06/13,13:40,0.523,0.299,0.552,0.489,0.467,0.244,0.216,southwest,2.9,No
2015/06/13,13:50,0.520,0.298,0.550,0.489,0.465,0.243,0.216,southwest,3.2,No
2015/06/13,14:00,0.517,0.299,0.551,0.489,0.466,0.244,0.214,west-northwest,2.9,No
2015/06/13,14:10,0.516,0.301,0.550,0.490,0.469,0.244,0.215,west,4.5,No
2015/06/13,14:20,0.515,0.302,0.551,0.491,0.470,0.245,0.214,west,6.7,No
2015/06/13,14:30,0.517,0.302,0.548,0.492,0.469,0.245,0.215,west,5.3,No
2015/06/13,14:40,0.519,0.303,0.549,0.493,0.469,0.245,0.214,west,5.2,No
2015/06/13,14:50,0.519,0.302,0.547,0.491,0.473,0.246,0.214,west-northwest,6.5,No
2015/06/13,15:00,0.518,0.302,0.548,0.493,0.472,0.246,0.215,west-northwest,4.5,No
2015/06/13,15:10,0.518,0.303,0.547,0.492,0.475,0.245,0.214,south-southwest,3.3,Yes
2015/06/13,15:20,0.519,0.303,0.548,0.491,0.473,0.245,0.215,west,5.6,No
2015/06/13,15:30,0.518,0.304,0.544,0.489,0.473,0.244,0.214,west,5.1,No
2015/06/13,15:40,0.518,0.305,0.543,0.491,0.471,0.247,0.213,southwest,2.2,No
2015/06/13,15:50,0.517,0.303,0.546,0.488,0.470,0.245,0.214,south-southwest,4.4,No
2015/06/13,16:00,0.517,0.302,0.544,0.489,0.468,0.244,0.218,south-southwest,5.0,No
2015/06/13,16:10,0.517,0.300,0.542,0.490,0.469,0.244,0.216,south,5.6,No
2015/06/13,16:20,0.521,0.301,0.541,0.489,0.467,0.243,0.215,south-southwest,5.3,No
2015/06/13,16:30,0.522,0.299,0.538,0.492,0.467,0.244,0.216,south-southwest,4.3,No
2015/06/13,16:40,0.521,0.299,0.541,0.496,0.465,0.244,0.217,south-southwest,5.0,No
2015/06/13,16:50,0.519,0.298,0.540,0.493,0.464,0.243,0.215,south,5.0,No
2015/06/13,17:00,0.517,0.297,0.541,0.491,0.463,0.243,0.215,south,5.4,No
2015/06/13,17:10,0.520,0.302,0.541,0.488,0.462,0.244,0.219,south,6.5,No
2015/06/13,17:20,0.525,0.301,0.540,0.496,0.461,0.244,0.216,south-southwest,5.7,No
2015/06/13,17:30,0.522,0.300,0.542,0.497,0.461,0.243,0.216,south,5.6,No
2015/06/13,17:40,0.518,0.300,0.550,0.494,0.460,0.244,0.218,south,6.8,No
2015/06/13,17:50,0.523,0.303,0.547,0.488,0.464,0.242,0.217,south-southwest,7.7,No
2015/06/13,18:00,0.525,0.302,0.543,0.496,0.470,0.245,0.215,south-southwest,7.2,No
2015/06/13,18:10,0.518,0.299,0.543,0.495,0.468,0.246,0.216,south-southwest,6.8,No
2015/06/13,18:20,0.518,0.302,0.550,0.491,0.464,0.244,0.216,south-southwest,5.6,No
2015/06/13,18:30,0.526,0.302,0.549,0.487,0.465,0.243,0.217,south-southwest,5.3,No
2015/06/13,18:40,0.522,0.302,0.546,0.497,0.472,0.245,0.217,south-southwest,5.3,No
2015/06/13,18:50,0.518,0.299,0.546,0.496,0.468,0.245,0.218,south-southwest,4.7,No
2015/06/13,19:00,0.522,0.302,0.554,0.490,0.466,0.243,0.216,southwest,3.3,No
2015/06/13,19:10,0.523,0.301,0.549,0.492,0.470,0.245,0.218,south-southwest,4.7,No
2015/06/13,19:20,0.520,0.300,0.544,0.496,0.470,0.244,0.217,southwest,4.2,No
2015/06/13,19:30,0.520,0.303,0.551,0.493,0.467,0.244,0.216,south-southwest,3.4,No
2015/06/13,19:40,0.523,0.301,0.553,0.489,0.467,0.246,0.218,south-southwest,3.1,No
2015/06/13,19:50,0.518,0.300,0.547,0.499,0.474,0.243,0.218,south-southwest,3.1,No
2015/06/13,20:00,0.523,0.302,0.546,0.495,0.470,0.246,0.216,south-southwest,3.1,No
2015/06/13,20:10,0.525,0.301,0.555,0.491,0.466,0.245,0.219,south-southwest,3.6,No
2015/06/13,20:20,0.520,0.301,0.550,0.494,0.473,0.245,0.217,southwest,3.1,No
2015/06/13,20:30,0.523,0.303,0.545,0.495,0.470,0.246,0.218,southwest,2.8,No
2015/06/13,20:40,0.527,0.301,0.551,0.490,0.466,0.244,0.219,west-southwest,1.2,No
2015/06/13,20:50,0.521,0.302,0.552,0.497,0.471,0.246,0.217,south-southwest,2.2,No
2015/06/13,21:00,0.522,0.303,0.546,0.496,0.473,0.247,0.218,south-southwest,3.9,No
2015/06/13,21:10,0.525,0.302,0.550,0.491,0.466,0.246,0.218,south-southwest,4.4,No
2015/06/13,21:20,0.521,0.305,0.553,0.494,0.472,0.246,0.219,south-southwest,4.1,No
2015/06/13,21:30,0.524,0.303,0.547,0.500,0.474,0.245,0.219,south-southwest,3.4,No
2015/06/13,21:40,0.527,0.302,0.551,0.492,0.466,0.247,0.219,south-southwest,3.5,No
2015/06/13,21:50,0.520,0.305,0.554,0.496,0.472,0.247,0.220,south-southwest,3.6,No
2015/06/13,22:00,0.525,0.302,0.547,0.496,0.474,0.246,0.219,south-southwest,4.7,No
2015/06/13,22:10,0.527,0.303,0.550,0.494,0.469,0.246,0.219,south-southwest,5.2,No
2015/06/13,22:20,0.520,0.304,0.556,0.497,0.469,0.245,0.220,south-southwest,4.3,No
2015/06/13,22:30,0.525,0.300,0.548,0.498,0.474,0.246,0.218,southwest,4.4,No
2015/06/13,22:40,0.526,0.305,0.548,0.492,0.468,0.246,0.219,south-southwest,2.7,No
2015/06/13,22:50,0.520,0.304,0.554,0.495,0.467,0.245,0.217,south-southwest,2.5,No
2015/06/13,23:00,0.526,0.303,0.548,0.498,0.474,0.245,0.219,south-southwest,3.3,No
2015/06/13,23:10,0.525,0.305,0.549,0.491,0.469,0.245,0.220,south-southwest,3.3,No
2015/06/13,23:20,0.519,0.302,0.554,0.496,0.469,0.246,0.218,south-southwest,2.5,No
2015/06/13,23:30,0.526,0.304,0.548,0.497,0.474,0.247,0.221,south-southwest,2.2,No
2015/06/13,23:40,0.522,0.303,0.554,0.492,0.469,0.247,0.218,south-southwest,2.0,No
2015/06/13,23:50,0.522,0.302,0.556,0.500,0.471,0.248,0.219,southwest,1.9,No
